Change the Weather History Date:

Tuesday, February 11, 2014

  Actual Average Record
Temperature  
Mean Temperature 35 °F 45 °F  
Max Temperature 39 °F 54 °F 75 °F (1932)
Min Temperature 31 °F 35 °F 9 °F (1971)
Degree Days  
Heating Degree Days 30 20  
Month to date heating degree days 241 234  
Since 1 July heating degree days 2364 2152  
Moisture  
Dew Point 31 °F    
Average Humidity 87    
Maximum Humidity 92    
Minimum Humidity 82    
Precipitation  
Precipitation 0.37 in 0.16 in 2.55 in (1981)
Month to date precipitation 1.35 1.73  
Year to date precipitation 4.31 6.76  
Snow  
Snow 0.00 in - - ()
Month to date snowfall 0.0  
Since 1 July snowfall T  
Snow Depth 0.00 in    
Sea Level Pressure  
Sea Level Pressure 30.22 in    
Wind  
Wind Speed 10 mph (ENE)    
Max Wind Speed 14 mph    
Max Gust Speed 20 mph    
Visibility 3 miles    
Events Rain , Snow    
T = Trace of Precipitation, MM = Missing Value Source: NWS Daily Summary

Daily Weather History Graph

Daily Weather History Graph

Search for Another Location

Airport or City:

Trip Planner

Search our weather history database for the weather conditions in past years. The results will help you decide how hot, cold, wet, or windy it might be!

Date:

Astronomy

Feb. 11, 2014 Rise Set
Actual Time 7:24 AM EST 6:15 PM EST
Civil Twilight 6:58 AM EST 6:41 PM EST
Nautical Twilight 6:28 AM EST 7:10 PM EST
Astronomical Twilight 5:59 AM EST 7:39 PM EST
Moon 3:38 PM EST (2/11) 4:57 AM EST (2/11)
Length of Visible Light 11h 42m
Length of Day
10h 50m
Waxing Gibbous, 90% of the Moon is Illuminated
Feb 11
Waxing Gibbous
Feb 14
Full
Feb 22
Last Quarter
Mar 1
New
Mar 8
First Quarter

Hourly Weather History & Observations

Time (EST) Temp. Windchill Dew Point Humidity Pressure Visibility Wind Dir Wind Speed Gust Speed Precip Events Conditions
12:04 AM 39.2 °F 33.0 °F 37.4 °F 93% 30.14 in 3.0 mi ENE 9.2 mph - N/A   Overcast
12:34 AM 39.2 °F 35.0 °F 37.4 °F 93% 30.14 in 2.0 mi ENE 5.8 mph - 0.00 in Rain Light Rain
12:50 AM 39.2 °F 31.6 °F 37.4 °F 93% 30.13 in 2.5 mi ENE 12.7 mph - 0.00 in Rain Light Rain
12:53 AM 39.0 °F 32.3 °F 37.0 °F 93% 30.14 in 2.5 mi ENE 10.4 mph - 0.00 in Rain Light Rain
1:01 AM 39.2 °F 33.0 °F 37.4 °F 93% 30.13 in 3.0 mi ENE 9.2 mph 19.6 mph 0.01 in Rain Light Rain
1:53 AM 37.9 °F 30.5 °F 36.0 °F 93% 30.15 in 5.0 mi East 11.5 mph - 0.01 in Rain Light Rain
2:39 AM 37.4 °F 30.8 °F 35.6 °F 93% 30.16 in 5.0 mi East 9.2 mph - 0.03 in Rain Light Rain
2:53 AM 37.9 °F 30.0 °F 35.1 °F 89% 30.15 in 5.0 mi East 12.7 mph - 0.04 in Rain Light Rain
3:53 AM 36.0 °F 28.0 °F 34.0 °F 93% 30.14 in 5.0 mi East 11.5 mph - 0.04 in Rain Light Rain
4:34 AM 35.6 °F 28.0 °F 33.8 °F 93% 30.14 in 4.0 mi ENE 10.4 mph 16.1 mph 0.01 in Rain Light Rain
4:53 AM 36.0 °F 28.5 °F 33.1 °F 89% 30.17 in 5.0 mi ENE 10.4 mph - 0.02 in Rain Light Rain
5:06 AM 35.6 °F 29.2 °F 33.8 °F 93% 30.16 in 4.0 mi ENE 8.1 mph - 0.00 in Rain Light Rain
5:25 AM 35.6 °F 29.2 °F 32.0 °F 87% 30.17 in 2.5 mi ENE 8.1 mph - 0.03 in Snow Light Snow
5:34 AM 33.8 °F 27.0 °F 32.0 °F 93% 30.17 in 2.0 mi ENE 8.1 mph - 0.04 in Snow Light Snow
5:37 AM 33.8 °F 27.7 °F 32.0 °F 93% 30.17 in 1.5 mi ENE 6.9 mph - 0.04 in Snow Light Snow
5:45 AM 33.8 °F 27.0 °F 30.2 °F 87% 30.17 in 1.0 mi ENE 8.1 mph - 0.06 in Snow Light Snow
5:53 AM 33.1 °F 26.9 °F 30.9 °F 92% 30.19 in 1.0 mi ENE 6.9 mph - 0.07 in Snow Light Snow
6:14 AM 33.8 °F 29.6 °F 30.2 °F 87% 30.19 in 1.2 mi ENE 4.6 mph - 0.02 in Snow Light Snow
6:53 AM 33.1 °F 24.4 °F 30.9 °F 92% 30.19 in 1.2 mi East 11.5 mph - 0.04 in Snow Light Snow
7:39 AM 33.8 °F 25.3 °F 30.2 °F 87% 30.20 in 2.0 mi East 11.5 mph - 0.02 in Snow Light Snow
7:50 AM 33.8 °F 25.3 °F 30.2 °F 87% 30.20 in 1.5 mi East 11.5 mph - 0.02 in Snow Light Snow
7:53 AM 33.1 °F 24.9 °F 30.9 °F 92% 30.22 in 1.2 mi East 10.4 mph - 0.02 in Snow Light Snow
8:02 AM 33.8 °F 26.4 °F 30.2 °F 87% 30.21 in 1.0 mi East 9.2 mph - 0.01 in Snow Light Snow
8:24 AM 32.0 °F 23.0 °F 30.2 °F 93% 30.21 in 0.8 mi East 11.5 mph - 0.02 in Snow Light Snow
8:40 AM 32.0 °F 23.6 °F 30.2 °F 93% 30.22 in 1.2 mi East 10.4 mph - 0.04 in Snow Light Snow
8:49 AM 32.0 °F 24.2 °F 30.2 °F 93% 30.22 in 2.0 mi East 9.2 mph - 0.04 in Snow Light Snow
8:53 AM 32.0 °F 24.2 °F 30.0 °F 92% 30.25 in 2.5 mi East 9.2 mph - 0.04 in Snow Light Snow
9:03 AM 32.0 °F 24.8 °F 30.2 °F 93% 30.23 in 1.8 mi East 8.1 mph - 0.01 in Snow Light Snow
9:08 AM 32.0 °F 24.2 °F 30.2 °F 93% 30.23 in 1.0 mi East 9.2 mph - 0.01 in Snow Light Snow
9:17 AM 32.0 °F 24.2 °F 30.2 °F 93% 30.24 in 0.8 mi ENE 9.2 mph - 0.02 in Snow Light Snow
9:53 AM 32.0 °F 23.0 °F 30.0 °F 92% 30.26 in 0.8 mi East 11.5 mph - 0.04 in Snow Light Snow
10:53 AM 32.0 °F 24.8 °F 30.0 °F 92% 30.28 in 0.8 mi ENE 8.1 mph - 0.03 in Snow Light Snow
11:41 AM 32.0 °F 24.2 °F 30.2 °F 93% 30.26 in 1.0 mi ENE 9.2 mph - 0.01 in Snow Light Snow
11:53 AM 32.0 °F 23.6 °F 30.0 °F 92% 30.28 in 1.0 mi ENE 10.4 mph - 0.02 in Snow Light Snow
12:02 PM 32.0 °F 24.2 °F 30.2 °F 93% 30.26 in 1.5 mi East 9.2 mph - 0.00 in Snow Light Snow
12:32 PM 33.8 °F 26.4 °F 30.2 °F 87% 30.25 in 2.0 mi ENE 9.2 mph - 0.00 in Snow Light Snow
12:40 PM 33.8 °F 27.0 °F 30.2 °F 87% 30.25 in 3.0 mi ENE 8.1 mph 17.3 mph 0.00 in Snow Light Snow
12:50 PM 33.8 °F 25.3 °F 30.2 °F 87% 30.24 in 2.0 mi East 11.5 mph - 0.00 in Snow Light Snow
12:53 PM 33.1 °F 24.4 °F 30.0 °F 89% 30.26 in 2.0 mi East 11.5 mph - 0.00 in Snow Light Snow
1:00 PM 33.8 °F 26.4 °F 30.2 °F 87% 30.23 in 1.8 mi ENE 9.2 mph - 0.00 in Snow Light Snow
1:08 PM 33.8 °F 25.8 °F 30.2 °F 87% 30.23 in 2.0 mi ENE 10.4 mph - 0.00 in Snow Light Snow
1:15 PM 33.8 °F 26.4 °F 30.2 °F 87% 30.23 in 2.5 mi East 9.2 mph - 0.00 in Snow Light Snow
1:29 PM 33.8 °F 27.0 °F 30.2 °F 87% 30.23 in 3.0 mi ENE 8.1 mph - 0.00 in Snow Light Snow
1:53 PM 33.1 °F 25.5 °F 30.0 °F 89% 30.24 in 5.0 mi ENE 9.2 mph - 0.00 in   Overcast
2:40 PM 33.8 °F 25.3 °F 30.2 °F 87% 30.21 in 5.0 mi ENE 11.5 mph - N/A   Overcast
2:53 PM 33.1 °F 26.9 °F 30.0 °F 89% 30.24 in 4.0 mi ENE 6.9 mph - N/A   Overcast
3:19 PM 33.8 °F 27.0 °F 30.2 °F 87% 30.21 in 2.5 mi NE 8.1 mph - 0.00 in   Overcast
3:34 PM 33.8 °F 26.4 °F 30.2 °F 87% 30.21 in 3.0 mi ENE 9.2 mph - 0.00 in   Overcast
3:53 PM 33.1 °F 26.1 °F 30.9 °F 92% 30.23 in 4.0 mi East 8.1 mph - 0.00 in   Overcast
4:13 PM 33.8 °F 27.0 °F 30.2 °F 87% 30.21 in 4.0 mi ENE 8.1 mph - N/A   Overcast
4:53 PM 33.1 °F 26.9 °F 30.0 °F 89% 30.24 in 5.0 mi ENE 6.9 mph - N/A   Overcast
5:53 PM 33.1 °F 26.1 °F 30.0 °F 89% 30.26 in 5.0 mi ENE 8.1 mph - N/A   Overcast
6:28 PM 33.8 °F 27.0 °F 30.2 °F 87% 30.25 in 7.0 mi East 8.1 mph - N/A   Overcast
6:30 PM 33.8 °F 27.0 °F 30.2 °F 87% 30.25 in 7.0 mi East 8.1 mph - N/A   Overcast
6:53 PM 33.1 °F 25.5 °F 28.9 °F 85% 30.27 in 7.0 mi East 9.2 mph - N/A   Overcast
7:07 PM 33.8 °F 27.0 °F 28.4 °F 81% 30.25 in 8.0 mi ENE 8.1 mph - N/A   Overcast
7:22 PM 33.8 °F 27.0 °F 28.4 °F 81% 30.26 in 8.0 mi ENE 8.1 mph - N/A   Overcast
7:39 PM 32.0 °F 24.2 °F 28.4 °F 87% 30.25 in 8.0 mi East 9.2 mph - N/A   Overcast
7:53 PM 32.0 °F 25.6 °F 28.9 °F 88% 30.27 in 7.0 mi ENE 6.9 mph - N/A   Overcast
8:05 PM 32.0 °F 24.2 °F 28.4 °F 87% 30.25 in 6.0 mi ENE 9.2 mph - N/A   Overcast
8:53 PM 32.0 °F 23.0 °F 28.9 °F 88% 30.28 in 6.0 mi East 11.5 mph - N/A   Overcast
9:53 PM 32.0 °F 24.8 °F 28.9 °F 88% 30.29 in 6.0 mi East 8.1 mph - N/A   Overcast
10:20 PM 32.0 °F 24.2 °F 28.4 °F 87% 30.27 in 6.0 mi East 9.2 mph - N/A   Overcast
10:53 PM 32.0 °F 23.6 °F 28.0 °F 85% 30.28 in 6.0 mi East 10.4 mph - N/A   Overcast
11:53 PM 30.9 °F 22.2 °F 28.0 °F 89% 30.28 in 6.0 mi East 10.4 mph - N/A   Overcast